[[{"header":{"parameterUnit":"m.s-1","parameterCategory":1,"la1":30.2991,"la2":30.254,"lo1":-89.0895,"lo2":-89.0444,"dy":0.0017,"dx":0.0017,"nx":28,"ny":28,"refTime":"2024-06-19T21:00:00:Z","depth":0,"parameterNumber":2,"parameterNumberName":"U-component_of_WINDS"},"data":[0,0,0,0,0,0,0,0,0,0,0,0,0,0,0,0,0,0,0,0,0,0,0,0,0,0,0,0,0,0,0,0,0,0,0,0,0,0,0,0,0,0,0,0,0,0,0,0,0,0,0,0,0,0,0,0,0,0,-5.3088,-5.3089,0,-5.3194,-5.3195,-5.3196,-5.3014,-5.3008,-5.3002,-5.2996,-5.3115,-5.3124,-5.3133,0,0,0,0,0,0,0,0,0,0,0,0,0,-5.2737,-5.2744,-5.3088,-5.3089,-5.309,-5.3194,-5.3195,-5.3197,-5.3016,-5.3008,-5.3,-5.2993,-5.3112,-5.3123,-5.3134,0,0,0,0,0,0,0,0,0,0,0,0,0,-5.2871,-5.2747,-5.3087,-5.3012,-5.3006,-5.3193,-5.3195,-5.3197,-5.3017,-5.3008,-5.2998,-5.299,-5.3109,-5.3122,-5.3135,-5.3404,0,0,-5.3176,-5.3182,0,0,0,0,0,0,0,0,-5.2864,-5.2884,-5.3022,-5.3018,-5.3012,-5.3081,-5.3115,-5.3267,-5.3019,-5.3013,-5.2996,-5.2985,-5.3112,-5.3125,-5.3165,-5.3409,-5.3414,-5.3177,-5.3186,-5.3191,-5.3195,0,0,0,0,0,0,0,-5.2855,-5.2879,-5.313,-5.3024,-5.3018,-5.2976,-5.2985,-5.3143,-5.3114,-5.3013,-5.3,-5.3015,-5.3108,-5.3153,-5.3167,-5.3416,-5.3177,-5.3189,-5.3197,-5.3202,-5.3888,-5.3898,0,0,0,0,0,0,-5.2853,-5.2872,-5.3126,-5.3133,-5.2913,-5.299,-5.3,-5.3068,-5.3112,-5.3109,-5.3023,-5.3006,-5.3135,-5.3151,-5.317,-5.349,-5.3191,-5.3204,-5.3211,-5.3878,-5.389,-5.3901,0,0,0,0,0,0,-5.2847,-5.2878,-5.3122,-5.2999,-5.3027,-5.3006,-5.3084,-5.3075,-5.312,-5.3118,-5.3113,-5.3074,-5.3128,-5.3152,-5.3347,-5.3491,-5.321,-5.3222,-5.3866,-5.3882,-5.3896,-5.413,0,0,0,0,0,0,-5.2837,-5.2876,-5.2976,-5.3003,-5.3034,-5.3295,-5.3093,-5.3084,-5.3143,-5.3122,-5.3165,-5.3163,-5.3122,-5.3328,-5.336,-5.3505,-5.3232,-5.3853,-5.3873,-5.3891,-5.4109,-5.4151,-5.4187,0,0,0,0,0,-5.2825,-5.304,-5.2982,-5.3014,-5.3158,-5.3304,-5.3322,-5.3267,-5.3155,-5.3257,-5.3256,-5.3162,-5.3469,-5.3349,-5.3384,-5.3535,-5.3844,-5.3867,-5.3889,-5.4092,-5.4143,-5.4186,0,0,0,0,0,0,-5.3035,-5.3042,-5.2978,-5.3207,-5.3256,-5.3272,-5.3399,-5.3323,-5.3408,-5.3385,-5.3317,-5.3328,-5.3539,-5.3555,-5.3422,-5.3798,-5.3638,-5.3669,-5.378,-5.3829,-5.3867,-5.386,-5.3244,0,0,0,0,0,-5.3107,-5.3221,-5.3222,-5.3424,-5.3452,-5.3422,-5.3483,-5.3436,-5.3486,-5.3506,-5.3519,-5.3574,-5.3682,-5.3755,-5.3855,-5.4109,-5.4118,-5.423,-5.4269,-5.4301,-5.433,-5.4469,-5.4519,-5.3976,-5.3976,-5.3976,0,0,-5.3259,-5.3277,-5.3354,-5.3467,-5.3499,-5.3623,-5.3441,-5.3578,-5.3671,-5.3528,-5.3713,-5.3725,-5.3781,-5.4007,-5.4108,-5.4028,-5.4481,-5.433,-5.4356,-5.4368,-5.4497,-5.4549,-5.4595,-5.3992,-5.3989,-5.3986,0,0,-5.3599,-5.3622,-5.3794,-5.3829,-5.3879,-5.3857,-5.3899,-5.3927,-5.3928,-5.4112,-5.4008,-5.4117,-5.4305,-5.435,-5.4398,-5.4753,-5.4672,-5.4788,-5.4993,-5.5129,-5.5172,-5.521,-5.534,-5.5387,-5.4816,-5.4816,-5.4817,0,-5.3783,-5.3961,-5.3893,-5.4038,-5.4092,-5.3964,-5.414,-5.4178,-5.426,-5.4302,-5.421,-5.4443,-5.4472,-5.4708,-5.4795,-5.4836,-5.4885,-5.4785,-5.517,-5.5208,-5.5242,-5.5366,-5.5415,-5.483,-5.4829,-5.4827,-5.4826,0,-5.4186,-5.4312,-5.4445,-5.4524,-5.4592,-5.4752,-5.4711,-5.4789,-5.4736,-5.4725,-5.4915,-5.4944,-5.5049,-5.51,-5.5051,-5.5331,-5.528,-5.5181,-5.5019,-5.5309,-5.5424,-5.5471,-5.485,-5.4845,-5.4841,-5.4838,0,0,-5.4666,-5.4702,-5.4752,-5.4787,-5.4832,-5.4929,-5.5084,-5.5182,-5.5253,-5.5312,-5.5443,-5.5604,-5.5512,-5.5566,-5.5521,-5.5639,-5.5924,-5.5525,-5.5525,-5.5602,-5.6238,-5.6316,-5.6371,-5.5867,-5.5876,-5.5883,-5.6234,0,-5.5006,-5.527,-5.5212,-5.5473,-5.559,-5.547,-5.5605,-5.5649,-5.5643,-5.5744,-5.5737,-5.5854,-5.5721,-5.5754,-5.5865,-5.5865,-5.6051,-5.5838,-5.5994,-5.6,-5.5987,-5.6431,-5.6513,-5.6844,-5.6279,-5.6286,-5.6292,0,-5.544,-5.5513,-5.5785,-5.5811,-5.5858,-5.5981,-5.6067,-5.6163,-5.6211,-5.6198,-5.6258,-5.619,-5.6347,-5.618,-5.6398,-5.6255,-5.6314,-5.6324,-5.6335,-5.6351,-5.6167,-5.6463,-5.6947,-5.6999,-5.6361,-5.6356,-5.6351,0,-5.5767,-5.5933,-5.6118,-5.6151,-5.6185,-5.6274,-5.6294,-5.6332,-5.6395,-5.6471,-5.6512,-5.6606,-5.666,-5.6736,-5.6696,-5.6578,-5.6923,-5.6752,-5.6921,-5.6922,-5.7003,-5.6999,-5.7507,-5.7034,-5.7033,-5.7032,-5.7031,0,-5.6156,-5.6328,-5.6265,-5.638,-5.657,-5.6502,-5.6693,-5.6698,-5.6734,-5.6849,-5.6751,-5.6862,-5.68,-5.6908,-5.6878,-5.7065,-5.7089,-5.7086,-5.7077,-5.7098,-5.7099,-5.7139,-5.7117,-5.7046,-5.7043,-5.704,-5.7038,0,-5.6555,-5.6519,-5.6713,-5.6728,-5.6736,-5.6876,-5.6891,-5.6999,-5.6983,-5.7131,-5.7162,-5.714,-5.7262,-5.7228,-5.7361,-5.734,-5.7578,-5.7538,-5.7562,-5.7553,-5.7725,-5.7712,-5.8281,-5.8354,-5.783,-5.7835,-5.784,0,-5.6808,-5.6937,-5.6965,-5.7034,-5.7059,-5.7171,-5.7234,-5.7173,-5.7243,-5.7307,-5.7409,-5.7521,-5.7608,-5.7808,-5.7807,-5.7908,-5.7872,-5.8065,-5.7887,-5.7905,-5.788,-5.7875,-5.7889,-5.8102,-5.8108,-5.8113,-5.8117,0,-5.7262,-5.7237,-5.7329,-5.7417,-5.7494,-5.7561,-5.7619,-5.7682,-5.7625,-5.7709,-5.783,-5.7897,-5.8031,-5.8146,-5.8238,-5.8261,-5.8183,-5.8172,-5.8217,-5.8242,-5.8252,-5.8253,-5.7663,-5.816,-5.8156,-5.8153,-5.815,-5.8149,-5.7598,-5.7708,-5.7745,-5.7852,-5.7888,-5.7945,-5.8047,-5.8043,-5.8142,-5.8244,-5.8202,-5.8343,-5.8389,-5.8504,-5.8539,-5.8651,-5.8578,-5.8642,-5.866,-5.8678,-5.8701,-5.823,-5.8667,-5.8665,-5.8664,-5.8663,-5.8662,0,-5.805,-5.8067,-5.8165,-5.8248,-5.8334,-5.8245,-5.8305,-5.8384,-5.8508,-5.8555,-5.8641,-5.8782,-5.8892,-5.8898,-5.9001,-5.909,-5.9057,-5.912,-5.9115,-5.9123,-5.8758,-5.871,-5.9145,-5.9145,-5.9145,-5.9145,-5.9145,-5.9145,-5.8295,-5.8477,-5.8457,-5.8657,-5.8673,-5.8807,-5.885,-5.8902,-5.894,-5.91,-5.919,-5.9191,-5.9223,-5.9328,-5.9426,-5.9425,-5.947,-5.9549,-5.9535,-5.9196,-5.9148,-5.9102,-5.9057,-5.9558,-5.9558,-5.989,-5.9893,-5.9896]},{"header":{"parameterUnit":"m.s-1","parameterCategory":1,"la1":30.2991,"la2":30.254,"lo1":-89.0895,"lo2":-89.0444,"dy":0.0017,"dx":0.0017,"nx":28,"ny":28,"refTime":"2024-06-19T21:00:00:Z","depth":0,"parameterNumber":3,"parameterNumberName":"V-component_of_WINDS"},"data":[0,0,0,0,0,0,0,0,0,0,0,0,0,0,0,0,0,0,0,0,0,0,0,0,0,0,0,0,0,0,0,0,0,0,0,0,0,0,0,0,0,0,0,0,0,0,0,0,0,0,0,0,0,0,0,0,0,0,-2.3599,-2.3599,0,-2.3575,-2.3574,-2.3574,-2.3578,-2.3579,-2.3579,-2.3579,-2.3552,-2.3551,-2.355,0,0,0,0,0,0,0,0,0,0,0,0,0,-2.3645,-2.3644,-2.3599,-2.3599,-2.3598,-2.3575,-2.3574,-2.3574,-2.3578,-2.3579,-2.3579,-2.358,-2.3552,-2.3551,-2.355,0,0,0,0,0,0,0,0,0,0,0,0,0,-2.3623,-2.3644,-2.3599,-2.3598,-2.3597,-2.3575,-2.3574,-2.3574,-2.3578,-2.3579,-2.3579,-2.358,-2.3553,-2.3551,-2.3549,-2.3526,0,0,-2.3544,-2.3544,0,0,0,0,0,0,0,0,-2.3624,-2.3621,-2.3598,-2.3598,-2.3597,-2.358,-2.358,-2.3558,-2.3578,-2.3585,-2.3579,-2.358,-2.3561,-2.3558,-2.3552,-2.3525,-2.3524,-2.3544,-2.3543,-2.3542,-2.3542,0,0,0,0,0,0,0,-2.3626,-2.3622,-2.3589,-2.3598,-2.3597,-2.3597,-2.3594,-2.3576,-2.357,-2.3585,-2.3585,-2.3582,-2.3561,-2.3554,-2.3552,-2.3523,-2.3544,-2.3543,-2.3542,-2.3541,-2.3471,-2.347,0,0,0,0,0,0,-2.3628,-2.3624,-2.359,-2.3589,-2.3613,-2.3595,-2.3593,-2.3585,-2.357,-2.3568,-2.3582,-2.3582,-2.3556,-2.3554,-2.3551,-2.3519,-2.3542,-2.3541,-2.354,-2.3472,-2.3471,-2.347,0,0,0,0,0,0,-2.3629,-2.3625,-2.3591,-2.3606,-2.3602,-2.3594,-2.3585,-2.3584,-2.3578,-2.3567,-2.3566,-2.3576,-2.3557,-2.3553,-2.3531,-2.3519,-2.354,-2.3538,-2.3473,-2.3472,-2.3471,-2.3459,0,0,0,0,0,0,-2.3631,-2.3626,-2.3618,-2.3606,-2.3601,-2.3574,-2.3584,-2.3583,-2.3575,-2.3576,-2.3562,-2.356,-2.3557,-2.3534,-2.353,-2.3517,-2.3537,-2.3474,-2.3472,-2.3471,-2.346,-2.3457,-2.3455,0,0,0,0,0,-2.3632,-2.3616,-2.3617,-2.3613,-2.3591,-2.3573,-2.357,-2.3567,-2.3574,-2.3565,-2.3558,-2.3561,-2.3521,-2.3532,-2.3527,-2.3513,-2.3475,-2.3473,-2.3471,-2.3461,-2.3458,-2.3455,0,0,0,0,0,0,-2.3626,-2.3614,-2.3616,-2.3596,-2.3585,-2.3574,-2.3563,-2.3564,-2.3551,-2.3552,-2.3548,-2.3545,-2.3522,-2.3516,-2.3528,-2.3488,-2.3499,-2.3496,-2.3493,-2.3489,-2.3487,-2.3488,-2.3536,0,0,0,0,0,-2.3622,-2.361,-2.36,-2.3582,-2.3577,-2.3571,-2.3563,-2.3561,-2.355,-2.3545,-2.3537,-2.3525,-2.3509,-2.3499,-2.3485,-2.346,-2.3455,-2.3448,-2.3445,-2.3443,-2.344,-2.3422,-2.3418,-2.3464,-2.3464,-2.3464,0,0,-2.3614,-2.3606,-2.3599,-2.3581,-2.3573,-2.3557,-2.3567,-2.3552,-2.3539,-2.3543,-2.3521,-2.3514,-2.3501,-2.3476,-2.3465,-2.347,-2.3426,-2.344,-2.3439,-2.3437,-2.342,-2.3415,-2.3411,-2.3463,-2.3463,-2.3463,0,0,-2.3592,-2.3586,-2.3569,-2.3561,-2.3548,-2.3543,-2.3539,-2.3527,-2.3523,-2.3501,-2.3502,-2.3487,-2.3462,-2.3451,-2.3442,-2.3412,-2.3413,-2.3408,-2.3393,-2.3376,-2.3372,-2.3369,-2.3355,-2.3351,-2.3405,-2.3405,-2.3405,0,-2.3583,-2.3562,-2.356,-2.3544,-2.3535,-2.3537,-2.3519,-2.351,-2.3493,-2.3486,-2.3492,-2.3458,-2.3449,-2.342,-2.3413,-2.3406,-2.3399,-2.3409,-2.3373,-2.337,-2.3366,-2.3353,-2.3348,-2.3404,-2.3404,-2.3405,-2.3405,0,-2.3551,-2.3536,-2.3524,-2.3507,-2.3496,-2.3479,-2.3473,-2.3462,-2.3461,-2.3455,-2.3431,-2.3421,-2.3402,-2.3396,-2.3395,-2.3366,-2.3369,-2.3374,-2.3384,-2.3361,-2.3348,-2.3344,-2.3403,-2.3404,-2.3404,-2.3404,0,0,-2.3524,-2.3505,-2.3501,-2.3492,-2.3477,-2.3464,-2.3446,-2.3428,-2.3418,-2.3406,-2.3388,-2.3365,-2.3369,-2.3358,-2.3356,-2.3342,-2.3314,-2.3348,-2.3347,-2.334,-2.3278,-2.3272,-2.3266,-2.3316,-2.3315,-2.3314,-2.3278,0,-2.3498,-2.3467,-2.3464,-2.3435,-2.3419,-2.342,-2.3403,-2.3391,-2.3384,-2.3368,-2.3361,-2.3343,-2.3351,-2.3345,-2.333,-2.3321,-2.3302,-2.3324,-2.3296,-2.3296,-2.3298,-2.326,-2.3255,-2.3221,-2.3273,-2.3272,-2.3272,0,-2.3465,-2.345,-2.342,-2.3404,-2.3397,-2.3383,-2.3365,-2.3351,-2.3335,-2.3331,-2.3319,-2.3317,-2.3296,-2.3308,-2.3276,-2.3291,-2.328,-2.3273,-2.3272,-2.3267,-2.3281,-2.3252,-2.3211,-2.3205,-2.3265,-2.3265,-2.3266,0,-2.3445,-2.3418,-2.3396,-2.3388,-2.3371,-2.336,-2.3351,-2.3337,-2.3326,-2.3309,-2.3301,-2.3283,-2.3272,-2.3256,-2.3249,-2.3259,-2.3216,-2.3229,-2.3209,-2.3209,-2.3199,-2.3199,-2.3153,-2.3196,-2.3196,-2.3196,-2.3196,0,-2.3415,-2.3396,-2.3386,-2.3372,-2.3349,-2.3345,-2.3321,-2.3313,-2.33,-2.3283,-2.3283,-2.3266,-2.3258,-2.3239,-2.3234,-2.3206,-2.3202,-2.3196,-2.3194,-2.3194,-2.3195,-2.3185,-2.3186,-2.3195,-2.3195,-2.3195,-2.3196,0,-2.3389,-2.3383,-2.3357,-2.3342,-2.3337,-2.3321,-2.3306,-2.3291,-2.3284,-2.3262,-2.3256,-2.3244,-2.3222,-2.3213,-2.3186,-2.3182,-2.3149,-2.3151,-2.3154,-2.3153,-2.3133,-2.3134,-2.3076,-2.3067,-2.3119,-2.3119,-2.3118,0,-2.337,-2.3355,-2.3337,-2.3325,-2.3317,-2.3299,-2.3286,-2.328,-2.3267,-2.3247,-2.3234,-2.3211,-2.3193,-2.3157,-2.3144,-2.3122,-2.3122,-2.3103,-2.3118,-2.3118,-2.3117,-2.3117,-2.3114,-2.3099,-2.3099,-2.3099,-2.3098,0,-2.3335,-2.3332,-2.3315,-2.3296,-2.3281,-2.3266,-2.3251,-2.3241,-2.3232,-2.3217,-2.3194,-2.318,-2.3151,-2.3127,-2.3104,-2.3094,-2.3093,-2.3094,-2.3087,-2.3086,-2.3088,-2.3083,-2.3143,-2.3095,-2.3095,-2.3095,-2.3095,-2.3096,-2.331,-2.3295,-2.328,-2.326,-2.3247,-2.3233,-2.3217,-2.3207,-2.3188,-2.3164,-2.3162,-2.3136,-2.3117,-2.3086,-2.3074,-2.3052,-2.3057,-2.3049,-2.3047,-2.3044,-2.3041,-2.3093,-2.3049,-2.3049,-2.3049,-2.3049,-2.3049,0,-2.3273,-2.3262,-2.3244,-2.3222,-2.3206,-2.3208,-2.319,-2.3176,-2.3153,-2.3137,-2.3118,-2.309,-2.3066,-2.3051,-2.3027,-2.3011,-2.301,-2.3005,-2.3005,-2.3001,-2.304,-2.3046,-2.3006,-2.3006,-2.3006,-2.3006,-2.3006,-2.3006,-2.3251,-2.3225,-2.322,-2.3186,-2.3175,-2.315,-2.314,-2.3125,-2.3111,-2.3079,-2.306,-2.305,-2.3033,-2.3007,-2.2984,-2.298,-2.2969,-2.2963,-2.2959,-2.2995,-2.2999,-2.3003,-2.3009,-2.2962,-2.2962,-2.2922,-2.2921,-2.2921]}]]